User: anonymous   Login
Location: Petržalka
(48.1109°N, 17.1116°E)
Time: 10:42:17
(UTC+01:00)
Language:

Hubble Space Telescope - Orbit

View from above orbital plane
View from above orbital plane
View from above satellite
View from above satellite

Ground track
Ground track

The orbit data is extracted from the following two-line orbital elements,

1 20580U 90037B   19315.50214792 +.00000461 +00000-0 +17103-4 0  9990
2 20580 028.4705 327.7276 0002436 252.7579 241.4009 15.09296617422856
Epoch (UTC): 11 November 2019 12:03:05
Eccentricity: 0.0002436
inclination: 28.4705°
perigee height: 536 km
apogee height: 540 km
right ascension of ascending node: 327.7276°
argument of perigee: 252.7579°
revolutions per day: 15.09296617
mean anomaly at epoch: 241.4009°
orbit number at epoch: 42285

The dashed part of the orbit path shows where the satellite is in the earth's shadow,  

DLR